SCP
0 0 0 0 0 0 0 0 0 0 0 0 0 0 0 0 0 0 0 0 0 0 0 0 0 0 0 0 0 0 0 0 0 0 0 0 0 0 0 0 0 0 0 0
0 0 0 0 0 0 0 0 0 0 0 0 0 0 0 0 0 0 0 0 0 0 0 0 0 0 0 0 0 0 0 0 0 0 0 0 0 0 0 0 0 0 0 0
0 0 0 0 0 0 0 0 0 0 0 0 0 0 0 0 0 0 0 0 0 0 0 0 0 0 0 0 0 0 0 0 0 0 0 0 0 0 0 0 0 0 0 0
0 0 0 0 0 0 0 0 0 0 0 0 0 0 0 0 0 0 0 0 0 0 0 0 0 0 0 0 0 0 0 0 0 0 0 0 0 0 0 0 0 0 0 0
0 0 0 0 0 0 0 0 0 0 0 0 0 0 0 0 0 0 0 0 0 0 0 0 0 0 0 0 0 0 0 0 0 0 0 0 0 0 0 0 0 0 0 0
0 0 0 0 0 0 0 0 0 0 0 0 0 0 0 0 0 0 0 0 0 0 0 0 0 0 0 0 0 0 0 0 0 0 0 0 0 0 0 0 0 0 0 0
0 0 0 0 0 0 0 0 0 0 0 0 0 0 0 0 0 0 0 0 0 0 0 0 0 0 0 0 0 0 0 0 0 0 0 0 0 0 0 0 0 0 0 0
0 0 0 0 0 0 0 0 0 0 0 0 0 0 0 0 0 0 0 0 0 0 0 0 0 0 0 0 0 0 0 0 0 0 0 0 0 0 0 0 0 0 0 0
0 0 0 0 0 0 0 0 0 0 0 0 0 0 0 0 0 0 0 0 0 0 0 0 0 0 0 0 0 0 0 0 0 0 0 0 0 0 0 0 0 0 0 0
0 0 0 0 0 0 0 0 0 0 0 0 0 0 0 0 0 0 0 0 0 0 0 0 0 0 0 0 0 0 0 0 0 0 0 0 0 0 0 0 0 0 0 0
0 0 0 0 0 0 0 0 0 0 0 0 0 0 0 0 0 0 0 0 0 0 0 0 0 0 0 0 0 0 0 0 0 0 0 0 0 0 0 0 0 0 0 -0
0 0 0 0 0 0 0 0 0 0 0 0 0 0 0 0 0 0 0 0 0 0 0 0 0 0 0 0 0 0 0 0 0 0 0 0 0 0 0 0 0 0 0 -0
0 0 0 0 0 0 0 0 0 0 0 0 0 0 0 0 0 0 0 0 0 0 0 0 0 0 0 0 0 0 0 0 0 0 0 0 0 0 0 0 0 0 0 0
-0 -0 0 0 0 0 0 0 0 0 0 0 0 0 0 0 0 0 0 0 0 0 0 0 0 0 0 0 0 0 0 0 0 0 0 0 0 0 0 0 0 0 0 0
-0 -0 0 0 0 0 0 0 0 0 0 0 0 0 0 0 0 0 0 0 0 0 0 0 0 0 0 0 0 0 0 0 0 0 0 -0 0 0 0 0 0 0 0 0
0 0 0 0 0 0 0 0 0 0 0 0 0 0 0 0 0 0 0 0 0 0 0 0 0 0 0 0 0 0 0 0 0 0 0 -0 -0 0 0 0 0 0 0 0
0 0 0 0 0 0 0 0 0 0 0 0 0 0 0 0 0 0 0 0 0 0 0 0 0 0 0 0 0 0 0 0 0 0 0 -0 -0 0 0 0 0 0 0 0
0 0 0 0 0 0 0 0 0 0 0 0 0 0 0 0 0 0 0 0 0 0 0 0 0 0 0 0 0 0 0 0 0 0 0 -0 0 0 0 0 0 0 0 0
0 0 0 0 0 0 0 0 0 0 0 0 0 0 0 0 0 0 0 0 0 0 0 0 0 0 0 0 0 0 0 0 0 0 0 0 0 0 0 0 0 0 0 0
0 0 0 0 0 0 0 0 0 0 0 0 0 0 0 0 0 0 0 0 0 0 0 0 0 0 0 0 0 0 0 0 0 0 0 0 0 0 0 0 0 0 0 0
0 0 0 0 0 0 0 0 0 0 0 0 0 0 0 0 0 0 0 0 0 0 0 0 0 0 0 0 0 0 0 0 0 0 0 0 0 0 0 0 0 0 0 0
0 0 0 0 0 0 0 0 0 0 0 0 0 0 0 0 0 0 0 0 0 0 0 0 0 0 0 0 0 0 0 0 0 0 0 0 0 0 0 0 0 0 0 0
0 0 0 0 0 0 0 0 0 0 0 -0 0 0 0 0 0 0 0 0 0 0 0 0 0 0 0 0 0 0 0 0 0 0 0 0 0 0 0 0 0 0 0 0
0 0 0 0 0 0 0 0 0 0 0 0 0 0 0 0 0 0 0 0 0 0 0 0 0 0 0 0 0 0 0 0 0 0 0 0 0 0 0 0 0 0 0 0
0 0 0 0 0 0 0 0 0 0 0 0 0 0 0 0 0 0 0 0 0 0 0 0 0 0 0 0 0 0 0 0 0 0 0 0 0 0 0 0 0 0 0 0
0 0 0 0 0 0 0 0 0 0 0 0 0 0 0 0 0 0 0 0 0 0 0 0 0 0 0 0 0 0 0 0 0 0 0 0 0 0 0 0 0 0 0 0
0 0 0 0 0 0 0 0 0 0 0 0 0 0 0 0 0 0 0 0 0 0 0 0 0 0 0 0 0 0 0 0 0 0 0 0 0 0 0 0 0 0 0 0
Wind_Speed
7 6 6 7 8 8 9 8 6 5 2 1 2 3 3 4 4 4 3 3 3 3 2 2 2 2 1 1 1 1 2 2 1 1 1 1 1 1 1 0 1 1 1 1
8 7 7 8 8 9 9 7 6 4 2 2 4 4 4 4 4 3 2 2 2 2 1 2 2 1 1 1 1 1 1 1 1 1 1 1 0 1 1 0 0 0 0 0
7 6 7 7 6 6 4 3 3 3 2 2 3 3 3 3 3 3 2 2 1 1 1 1 1 2 2 1 1 1 1 1 1 1 1 1 1 1 1 0 0 0 0 0
5 6 7 0 4 3 1 1 3 2 3 3 3 3 3 3 3 3 2 2 1 0 1 1 1 1 2 1 1 1 1 1 1 1 1 1 1 1 1 1 1 1 1 0
4 5 4 1 1 2 2 0 2 2 3 3 3 2 2 4 3 3 2 2 1 1 0 1 1 1 1 2 1 1 1 1 1 2 2 2 2 2 1 1 1 1 1 1
5 5 4 1 2 2 2 0 3 3 2 2 2 1 1 3 3 3 3 2 2 2 2 1 1 1 1 1 1 1 1 2 2 2 2 3 3 2 1 2 2 1 1 1
6 5 1 2 2 1 1 1 3 4 3 3 2 2 2 3 3 3 3 3 3 2 2 2 2 1 1 1 0 0 1 1 1 2 2 3 3 2 2 1 1 1 1 1
3 4 1 3 2 2 3 3 3 3 3 4 4 4 3 3 3 3 3 3 3 3 2 2 2 2 1 1 1 1 1 0 0 1 1 1 2 2 2 2 2 2 1 2
1 1 3 3 3 3 3 3 3 3 3 3 3 2 3 2 2 2 2 2 2 2 2 2 2 1 1 1 2 2 1 1 1 1 0 1 1 2 2 2 2 2 2 2
1 1 1 2 3 3 3 3 3 3 3 3 2 2 2 2 2 2 2 2 2 1 1 1 1 1 1 1 1 1 1 1 1 1 1 1 1 2 2 2 2 2 2 2
3 1 1 2 3 3 3 3 3 3 3 3 2 2 2 2 2 2 2 1 1 1 1 1 1 2 2 2 1 2 1 1 1 1 1 1 1 1 2 2 2 2 2 1
2 1 1 1 1 2 2 2 3 3 3 3 3 2 2 2 2 2 2 2 1 1 1 1 2 2 1 1 1 2 1 1 1 1 1 1 1 1 2 3 3 3 3 3
2 3 3 2 2 1 2 2 2 2 2 2 2 2 2 2 2 2 2 2 2 1 1 1 1 1 2 1 1 2 2 2 1 1 1 1 1 1 2 2 3 3 4 4
2 2 2 2 1 1 1 1 2 2 3 3 2 2 2 2 2 2 1 1 2 1 1 1 1 2 2 2 2 2 2 2 2 1 2 2 2 2 2 2 2 2 3 5
1 2 2 1 1 1 1 1 1 1 1 2 2 2 2 2 2 2 2 2 2 2 2 2 2 3 3 3 2 2 2 1 1 2 2 2 2 2 2 2 2 1 1 2
2 1 1 2 2 2 1 1 1 1 1 1 1 1 1 1 1 2 2 2 2 2 2 3 3 3 3 3 3 2 2 3 3 2 2 2 2 2 2 2 2 2 2 2
3 3 2 2 2 2 2 1 1 1 0 1 1 1 1 1 1 1 2 2 2 2 2 3 3 3 4 4 3 2 2 2 3 3 2 2 2 2 2 2 2 2 2 2
3 3 2 2 2 2 2 1 1 1 0 0 1 1 1 1 1 1 1 2 2 2 3 3 3 4 3 4 3 3 2 2 2 2 2 2 3 2 2 2 2 2 2 2
3 2 2 2 2 2 2 2 1 1 1 1 1 1 1 1 0 1 1 1 1 1 2 3 6 5 3 4 5 3 3 3 2 2 2 3 3 2 2 2 2 2 2 2
2 2 2 2 2 2 2 1 1 1 1 1 1 1 1 1 0 0 1 1 1 1 1 2 3 3 3 3 5 3 3 3 3 2 2 2 2 3 3 3 3 3 2 2
2 2 1 1 1 2 2 1 1 1 1 1 1 1 1 1 1 1 1 1 1 1 1 3 2 2 3 4 5 3 3 3 2 2 2 2 2 3 3 3 3 3 2 2
2 1 2 2 1 1 1 1 1 1 1 1 1 1 1 1 1 1 1 1 0 1 1 1 1 3 4 5 3 3 3 3 2 2 2 2 2 3 3 3 3 3 2 2
2 2 2 2 2 1 1 1 1 1 1 1 1 1 1 1 1 1 1 0 0 1 2 1 2 4 6 4 3 3 3 3 3 2 2 2 3 3 3 3 3 3 2 2
2 1 1 1 1 1 1 1 1 1 1 1 1 1 1 1 1 0 0 0 1 2 1 2 3 5 5 3 2 3 3 3 3 3 3 3 2 2 3 3 3 3 3 3
1 1 1 2 2 1 1 1 1 1 1 0 0 1 1 0 1 0 0 0 1 2 1 2 4 5 3 2 2 3 3 3 3 3 3 3 3 3 3 3 3 3 2 3
1 1 1 2 1 0 1 1 1 1 1 1 0 0 0 0 0 0 0 1 1 2 2 1 2 3 2 2 3 3 3 3 3 3 3 3 3 3 3 3 4 3 2 3
1 1 0 0 0 0 0 1 1 1 1 1 1 1 1 1 1 1 1 1 1 1 1 1 1 2 2 2 3 3 3 3 3 3 3 3 3 3 3 3 3 2 2 2
Wind_Direction
270 273 269 256 246 247 255 261 267 281 305 319 69 94 91 93 99 101 104 105 111 120 131 149 154 158 156 149 138 178 182 173 180 181 160 164 165 140 130 130 151 158 184 165
269 258 258 262 256 246 247 259 269 277 293 34 61 63 66 85 87 82 82 88 105 120 128 157 163 165 156 157 155 168 175 161 127 133 126 133 147 134 113 94 65 61 155 145
269 257 260 258 268 240 228 263 274 285 317 64 66 56 52 72 97 95 75 53 66 124 138 160 173 179 183 178 172 163 152 148 148 161 173 158 138 107 111 145 122 353 285 223
262 263 253 316 17 35 107 7 2 1 36 34 61 56 46 62 85 84 68 53 46 59 159 174 162 166 149 143 143 138 120 149 173 180 176 160 156 167 196 181 175 191 221 227
264 258 256 198 20 344 319 349 14 19 31 28 39 75 66 59 57 72 67 53 46 22 57 142 134 145 156 143 138 142 157 194 195 181 177 178 184 199 202 195 203 212 187 204
265 260 262 50 21 344 288 215 31 37 41 23 7 329 42 45 44 63 66 58 47 37 26 59 86 106 146 153 150 183 205 215 210 197 187 191 196 201 206 209 207 214 202 200
258 263 283 26 360 340 239 65 31 25 29 21 17 30 29 41 47 63 67 63 58 54 40 47 61 78 81 77 7 251 255 236 228 214 197 193 190 193 207 212 212 228 223 211
249 249 244 55 58 49 53 50 33 31 26 18 40 49 40 43 47 61 64 63 62 60 46 41 52 68 60 33 353 9 2 318 270 241 223 202 183 193 202 196 213 225 230 227
322 85 89 78 77 51 43 31 21 23 27 25 39 40 37 35 39 52 62 61 55 58 54 46 52 64 54 16 11 359 341 329 309 280 253 216 201 204 206 203 206 217 215 222
284 95 111 61 49 36 28 19 8 13 26 21 20 27 23 32 38 50 58 54 53 53 47 26 34 37 36 24 12 351 335 339 325 330 331 284 232 206 205 209 211 224 221 227
275 310 2 26 18 12 17 11 5 7 15 15 9 16 19 15 40 45 42 38 40 43 20 350 12 27 28 26 1 333 312 321 339 346 301 290 254 227 215 209 194 211 232 227
284 312 291 318 359 351 2 2 352 357 6 11 7 5 16 21 35 46 28 22 29 36 28 3 3 10 20 14 346 323 319 336 326 316 285 260 257 283 273 241 229 232 237 235
336 359 2 352 346 341 342 346 347 351 351 3 13 16 20 23 32 37 29 18 9 20 13 348 346 355 357 342 323 314 316 323 321 307 296 275 261 246 262 264 248 246 239 234
35 350 312 320 327 329 340 348 347 349 356 11 18 19 20 22 32 37 28 12 356 1 8 6 5 355 344 338 323 309 312 314 306 280 271 261 263 266 259 245 238 245 237 232
286 301 307 323 316 305 327 347 326 329 358 14 13 4 4 13 9 3 7 7 9 5 4 1 357 349 344 340 332 315 311 300 287 284 281 269 264 266 274 276 262 253 252 246
308 319 294 270 260 264 260 268 282 285 339 356 350 346 354 359 356 9 16 18 14 5 358 356 356 348 347 347 340 330 326 320 318 303 294 282 273 266 266 270 264 257 246 237
241 247 239 258 265 259 254 250 259 250 299 339 331 344 4 14 18 17 11 10 15 11 11 14 360 352 357 356 345 331 320 305 301 298 284 282 282 274 272 274 272 258 251 244
246 252 262 274 284 288 286 277 263 233 152 30 341 334 334 334 347 6 7 5 8 9 12 13 4 351 357 356 343 332 319 303 292 290 297 306 303 293 283 282 280 275 270 263
254 257 259 269 277 270 269 270 273 244 167 168 198 247 277 286 326 3 358 351 356 358 7 17 354 345 350 355 344 325 316 310 307 305 305 308 300 294 289 281 278 274 268 262
248 263 274 285 286 281 268 250 249 224 176 187 216 251 272 309 360 340 318 312 331 3 24 6 340 332 343 350 341 322 317 313 309 308 311 301 295 294 289 283 280 277 268 258
237 242 254 269 279 278 272 250 220 191 184 194 214 232 247 274 292 290 299 309 349 48 38 345 329 333 346 343 329 316 311 308 302 298 299 300 302 305 304 299 294 287 279 274
224 230 249 258 254 259 267 258 208 200 192 205 232 247 238 234 253 276 281 279 352 25 348 294 325 345 341 335 318 314 313 313 311 310 310 309 306 303 305 305 299 294 288 282
222 236 247 251 250 252 240 224 226 220 214 217 227 235 239 243 240 246 275 292 100 332 317 315 334 333 330 324 311 307 307 307 310 311 308 303 299 299 300 303 301 298 291 286
224 227 248 262 255 241 236 234 231 236 233 231 233 230 226 227 258 299 5 54 339 319 311 306 316 316 315 306 301 303 306 310 314 315 311 305 301 300 301 302 303 300 292 286
223 222 230 239 244 232 225 240 240 231 213 191 253 273 259 220 212 230 225 209 270 298 292 282 292 302 301 299 306 307 309 312 315 318 318 313 306 302 301 302 299 298 296 285
246 239 232 235 242 219 187 195 230 242 230 212 233 272 321 4 341 277 242 240 265 293 294 286 294 300 299 305 306 306 306 308 309 309 305 303 301 304 308 310 308 306 304 298
262 260 260 258 237 184 223 226 226 233 230 234 279 316 316 295 275 257 265 275 284 283 291 297 299 301 305 309 310 310 310 311 311 311 312 312 311 313 312 310 308 308 308 308